Regional Weather Roundup
Issued by NWS

Home | Current Version | Previous Version | Graphics & Text | Print | Product List | Glossary On
Versions: 1 2 3 4 5 6 7 8 9 10 11 12 13 14 15 16 17 18 19 20 21 22 23 24 25 26 27 28 29 30 31 32 33 34 35 36 37 38 39 40 41 42
000
ASUS43 KDMX 251507
RWRIA

WEATHER ROUNDUP FOR IOWA
NATIONAL WEATHER SERVICE DES MOINES IA
900 AM CST THU DEC 25 2014

NOTE: "FAIR" INDICATES FEW OR NO CLOUDS BELOW 12,000 FEET WITH NO
SIGNIFICANT WEATHER AND/OR OBSTRUCTIONS TO VISIBILITY.

* - THESE STATIONS ARE NOT NWS STATIONS...THUS NOT UNDER NWS
QUALITY CONTROL.  THEY ALSO DO NOT REPORT WEATHER SUCH
AS PRECIPITATION OR FOG.

IAZ001>003-012>014-020>022-031>034-043>046-251600-
   NORTHWEST IOWA

CITY           SKY/WX    TMP DP  RH WIND       PRES   REMARKS
CARROLL *      SUNNY     34  28  80 S15       29.67R WCI  24
CHEROKEE *     CLOUDY    32  28  86 S5        29.64R WCI  27
DENISON *      CLEAR     34  28  80 S15       29.64R WCI  24
LE MARS *      CLEAR     32  28  86 S7        29.63R WCI  26
ORANGE CITY *  CLEAR     30  27  86 S6        29.61R WCI  24
SHELDON *      MOCLDY    28  28 100 SE8       29.61R WCI  20
SIOUX CITY     MOCLDY    31  27  85 SE8       29.63R WCI  23
SPENCER        MOCLDY    30  26  85 SE7       29.64R WCI  23
STORM LAKE *   CLEAR     30  27  86 S5        29.65R WCI  25
$$

IAZ055>058-069>071-079>083-090>094-251600-
   SOUTHWEST IOWA

CITY           SKY/WX    TMP DP  RH WIND       PRES   REMARKS
ATLANTIC *     SUNNY     34  28  80 S13       29.69R WCI  25
AUDUBON *      SUNNY     34  27  75 S9        29.70R WCI  26
CLARINDA *     SUNNY     36  28  75 S12G18    29.73R WCI  27
COUNCIL BLFS * SUNNY     32  30  93 SE10      29.66R WCI  24
CRESTON *      SUNNY     32  28  86 S15G21    29.73R WCI  22
HARLAN  *      SUNNY     32  32 100 S7        29.72R WCI  26
LAMONI         CLOUDY    32  28  85 S13G22    29.76S WCI  22
RED OAK *      SUNNY     34  28  80 S12G18    29.70R WCI  25
SHENANDOAH *   SUNNY     36  28  75 S15       29.71R WCI  26
$$

IAZ047>049-059>061-072>074-084-251600-
   CENTRAL IOWA

CITY           SKY/WX    TMP DP  RH WIND       PRES   REMARKS
AMES           CLOUDY    32  28  85 S10       29.73R WCI  24
ANKENY *       SUNNY     34  28  80 S10       29.75R WCI  26
CHARITON *     SUNNY     32  30  93 S14       29.78R WCI  22
DES MOINES     CLOUDY    35  27  72 S12       29.75R WCI  27
GRINNELL*      CLOUDY    32  30  93 S14       29.79R WCI  22
KNOXVILLE *    SUNNY     34  28  80 S15       29.77R WCI  24
MARSHALLTOWN   CLOUDY    32  28  85 S13       29.75R WCI  22
PELLA *        CLOUDY    34  30  86 S10       29.81R WCI  26
PERRY *          N/A     34  30  86 S13       29.71R WCI  25
$$

IAZ004>006-015-016-023>025-035-036-251600-
   NORTH CENTRAL IOWA

CITY           SKY/WX    TMP DP  RH WIND       PRES   REMARKS
ALGONA *       CLEAR     30  32 100 S14       29.68R WCI  20
CLARION *      SUNNY     30  30 100 S14       29.70R WCI  20
ESTHERVILLE    CLOUDY    28  26  92 S12       29.64R WCI  18
FORT DODGE *   CLOUDY    30  27  86 S7        29.69R WCI  23
MASON CITY     CLOUDY    30  28  92 S13       29.72R WCI  20
FOREST CITY *  CLEAR     32  30  93 SE9       29.69R WCI  24
IOWA FALLS *     N/A     32  28  86 S13       29.74R WCI  22
$$

IAZ007>011-017>019-026>030-037>042-050>054-066-251600-
   NORTHEAST IOWA

CITY           SKY/WX    TMP DP  RH WIND       PRES   REMARKS
CEDAR RAPIDS   PTSUNNY   32  30  92 S16       29.81R WCI  21
CHARLES CITY * MOSUNNY   32  32 100 S14       29.75R WCI  22
CLINTON *      MOSUNNY   34  28  80 S10       29.91R WCI  26
DECORAH *      CLOUDY    30  28  93 S10       29.76S WCI  21
DUBUQUE        CLOUDY    32  28  85 S13       29.83R WCI  22
MONTICELLO *   CLOUDY    34  32  93 S14       29.83S WCI  24
OELWEIN *      MOSUNNY   32  30  93 S15G22    29.78R WCI  22
WATERLOO       MIX PCPN  32  29  88 S14       29.77R WCI  22
$$

IAZ064-065-067-068-078-251600-
   EAST CENTRAL IOWA

CITY           SKY/WX    TMP DP  RH WIND       PRES   REMARKS
DAVENPORT      SUNNY     34  28  79 S12       29.88S WCI  25
IOWA CITY      PTSUNNY   33  30  88 S10       29.86R WCI  25
MT. PLEASANT * MOSUNNY   34  30  86 S16       29.88R WCI  23
MUSCATINE *    SUNNY     36  30  80 S13       29.88R WCI  27
QUAD CITIES    SUNNY     35  28  75 S13       29.89R WCI  26
$$

IAZ062-063-075>077-085>089-095>099-251600-
   SOUTHEAST IOWA

CITY           SKY/WX    TMP DP  RH WIND       PRES   REMARKS
BURLINGTON     SUNNY     35  31  85 S13       29.89R WCI  26
FAIRFIELD *    SUNNY     34  28  80 S15       29.85R WCI  24
FORT MADISON * SUNNY     36  34  93 S10       29.90R WCI  28
KEOKUK *       SUNNY     36  30  80 S14       29.89R WCI  27
OSKALOOSA *      N/A     32  30  93 S12       29.82R WCI  23
CENTERVILLE *  SUNNY     32  32 100 S10       29.83R WCI  24
OTTUMWA        PTSUNNY   33  29  85 S15       29.82R WCI  23
WASHINGTON *   SUNNY     34  34 100 S15       29.85R WCI  24
$$

ABBREVIATIONS USED IN REMARKS
   TC - TEMPERATURES IN CELSIUS
  WCI - WIND CHILL INDEX
   HX - HEAT INDEX
  VSB - VISIBILITY
$$




USA.gov is the U.S. government's official web portal to all federal, state and local government web resources and services.